Home   Weather   Asheville   Past weeks
Flag for USA

Past Weather in Asheville, North Carolina, USA — Yesterday and Last 2 Weeks

Now
47 °F

Clear.


Feels Like: 41 °F
Forecast: 61 / 43 °F
Wind: 14 mph from North

Location: Asheville Regional Airport

Current Time: Oct 23, 2019 at 4:37:49 am

Latest Report: Oct 23, 2019 at 3:54 am


Visibility: 10 mi

Pressure: 30.03 "Hg (27.76 "Hg at 647m altitude)

Humidity: 71%

Dew Point: 38 °F

Location of AshevilleLocation

Past Weather in Asheville — Graph

°F

Asheville Temperature Yesterday

Maximum temperature yesterday: 69 °F (at 3:54 pm)
Minimum temperature yesterday: 48 °F (at 10:54 pm)
Average temperature yesterday: 62 °F

High & Low Weather Summary for the Past Weeks

 TemperatureHumidityPressure
High77 °F (Oct 12, 1:54 pm)97% (Oct 11, 7:54 am)30.27 "Hg (Oct 11, 7:54 am)
Low39 °F (Oct 18, 7:54 am)26% (Oct 14, 4:54 pm)29.71 "Hg (Oct 16, 12:54 pm)
Average58 °F77%30.02 "Hg
* Reported Oct 8 2:54 am — Oct 23 2:54 am, Asheville. Weather by CustomWeather, © 2019

Note: Actual official high and low records may vary slightly from our data, if they occured in-between our weather recording intervals... More about our weather records

Advertising

Asheville Weather History for the Previous 24 Hours

Scroll right to see more
 ConditionsComfort  
Time TempWeatherWind HumidityBarometerVisibility
2:54 am
Wed, Oct 23
43 °FClear.3 mph89%30.02 "Hg10 mi
1:54 am46 °FClear.No wind77%30.01 "Hg10 mi
12:54 am49 °FClear.5 mph69%30.00 "Hg10 mi
11:54 pm
Tue, Oct 22
48 °FClear.6 mph80%30.01 "Hg10 mi
10:54 pm48 °FClear.No wind77%30.00 "Hg10 mi
9:54 pm49 °FClear.No wind74%29.98 "Hg10 mi
8:54 pm53 °FClear.7 mph61%29.95 "Hg10 mi
7:54 pm59 °FClear.8 mph42%29.92 "Hg10 mi
6:54 pm60 °FClear.8 mph41%29.89 "Hg10 mi
5:54 pm66 °FSunny.12 mph31%29.85 "Hg10 mi
4:54 pm69 °FSunny.9 mph35%29.83 "Hg10 mi
3:54 pm69 °FSunny.8 mph47%29.81 "Hg10 mi
2:54 pm68 °FSunny.13 mph55%29.80 "Hg10 mi
1:54 pm67 °FSunny.13 mph61%29.82 "Hg10 mi
12:54 pm64 °FPassing clouds.16 mph70%29.85 "Hg10 mi
11:54 am61 °FPartly sunny.17 mph81%29.87 "Hg10 mi
11:03 am57 °FLight rain. Fog.13 mph90%29.92 "Hg2 mi
10:37 am56 °FLight rain. Mostly cloudy.16 mph90%29.93 "Hg10 mi
10:11 am56 °FHeavy rain. Fog.8 mph90%29.92 "Hg1 mi
9:56 am57 °FHeavy rain. Fog.24 mph90%29.91 "Hg1 mi
9:37 am62 °FHeavy rain. Fog.18 mph90%29.89 "Hg1 mi
9:06 am65 °FLight rain. Low clouds.No wind91%29.88 "Hg9 mi
8:54 am65 °FOvercast.3 mph91%29.82 "Hg10 mi
7:54 am65 °FMostly cloudy.9 mph91%29.83 "Hg10 mi
7:41 am64 °FLight rain. Mostly cloudy.8 mph94%29.89 "Hg8 mi
7:33 am64 °FLight rain. Fog.8 mph94%29.89 "Hg2 mi
7:14 am64 °FHeavy rain. Fog.5 mph94%29.89 "Hg1 mi
7:02 am64 °FRain. Fog.7 mph94%29.89 "Hg4 mi
6:54 am64 °FLight rain. Fog.3 mph94%29.82 "Hg3 mi
6:04 am64 °FLight rain. Fog.7 mph94%29.90 "Hg6 mi
5:54 am64 °FRain. Fog.6 mph90%29.84 "Hg4 mi
4:54 am64 °FMostly cloudy.7 mph90%29.85 "Hg10 mi
4:24 am63 °FRain. Fog.6 mph93%29.91 "Hg5 mi
Weather by CustomWeather, © 2019

See weather overview